Change the Weather History Date:

Tuesday, February 21, 2012

  Actual Average Record
Temperature  
Mean Temperature 48 °F 47 °F  
Max Temperature 65 °F 60 °F 87 °F (1986)
Min Temperature 30 °F 34 °F 18 °F (1939)
Degree Days  
Heating Degree Days 17 18  
Month to date heating degree days 409 436  
Since 1 July heating degree days 2073 2372  
Cooling Degree Days 0 0  
Month to date cooling degree days 0 0  
Year to date cooling degree days 0 1  
Moisture  
Dew Point 32 °F    
Average Humidity 62    
Maximum Humidity 100    
Minimum Humidity 24    
Precipitation  
Precipitation 0.00 in 0.11 in 2.25 in (1997)
Month to date precipitation 2.24 2.97  
Year to date precipitation 4.77 6.29  
Snow  
Snow 0.00 in - - ()
Month to date snowfall 2.3  
Since 1 July snowfall 2.3  
Snow Depth 0.00 in    
Sea Level Pressure  
Sea Level Pressure 30.06 in    
Wind  
Wind Speed 4 mph (South)    
Max Wind Speed 17 mph    
Max Gust Speed 24 mph    
Visibility 6 miles    
Events Fog    
T = Trace of Precipitation, MM = Missing Value Source: NWS Daily Summary

Daily Weather History Graph

Daily Weather History Graph

Search for Another Location

Airport or City:

Trip Planner

Search our weather history database for the weather conditions in past years. The results will help you decide how hot, cold, wet, or windy it might be!

Date:

Astronomy

Feb. 21, 2012 Rise Set
Actual Time 6:56 AM CST 6:06 PM CST
Civil Twilight 6:31 AM CST 6:31 PM CST
Nautical Twilight 6:01 AM CST 7:01 PM CST
Astronomical Twilight 5:32 AM CST 7:30 PM CST
Moon 6:26 AM CST (2/21) 6:11 PM CST (2/21)
Length of Visible Light 12h 00m
Length of Day
11h 10m
Waning Crescent, 0% of the Moon is Illuminated
Feb 21
Waning Crescent
Feb 21
New
Feb 29
First Quarter
Mar 8
Full
Mar 14
Last Quarter

Hourly Weather History & Observations

Time (CST) Temp. Windchill Dew Point Humidity Pressure Visibility Wind Dir Wind Speed Gust Speed Precip Events Conditions
12:53 AM 43.0 °F 39.5 °F 37.0 °F 80% 30.06 in 10.0 mi SSW 5.8 mph - N/A   Clear
1:53 AM 39.9 °F 36.7 °F 36.0 °F 86% 30.06 in 10.0 mi South 4.6 mph - N/A   Clear
2:53 AM 36.0 °F - 35.1 °F 97% 30.06 in 10.0 mi Calm Calm - N/A   Clear
3:53 AM 34.0 °F - 33.1 °F 96% 30.06 in 4.0 mi Calm Calm - N/A   Clear
4:07 AM 33.8 °F - 32.0 °F 93% 30.06 in 2.0 mi Calm Calm - N/A   Clear
4:14 AM 33.8 °F - 32.0 °F 93% 30.06 in 1.0 mi Calm Calm - N/A   Clear
4:17 AM 33.8 °F - 32.0 °F 93% 30.07 in 0.8 mi Calm Calm - N/A   Mist
4:25 AM 32.0 °F - 32.0 °F 100% 30.07 in 1.2 mi Calm Calm - N/A   Partly Cloudy
4:29 AM 33.8 °F - 32.0 °F 93% 30.07 in 3.0 mi Calm Calm - N/A   Partly Cloudy
4:53 AM 32.0 °F - 32.0 °F 100% 30.08 in 2.0 mi Calm Calm - N/A   Clear
5:39 AM 30.2 °F - 30.2 °F 100% 30.09 in 2.0 mi Calm Calm - N/A   Partly Cloudy
5:50 AM 32.0 °F - 30.2 °F 93% 30.09 in 1.5 mi Calm Calm - N/A   Partly Cloudy
5:53 AM 32.0 °F - 30.9 °F 96% 30.10 in 2.0 mi Calm Calm - N/A   Clear
6:03 AM 30.2 °F - 30.2 °F 100% 30.10 in 1.8 mi Calm Calm - N/A   Clear
6:06 AM 30.2 °F - 30.2 °F 100% 30.10 in 3.0 mi Calm Calm - N/A   Clear
6:09 AM 30.2 °F - 30.2 °F 100% 30.10 in 2.0 mi Calm Calm - N/A   Partly Cloudy
6:14 AM 30.2 °F - 30.2 °F 100% 30.11 in 1.0 mi Calm Calm - N/A   Mist
6:23 AM 30.2 °F - 30.2 °F 100% 30.11 in 2.0 mi Calm Calm - N/A   Partly Cloudy
6:31 AM 30.2 °F - 30.2 °F 100% 30.11 in 4.0 mi Calm Calm - N/A   Partly Cloudy
6:41 AM 30.2 °F - 28.4 °F 93% 30.11 in 1.8 mi Calm Calm - N/A   Clear
6:53 AM 30.0 °F - 28.9 °F 96% 30.11 in 0.5 mi Calm Calm - N/A Fog Light Freezing Fog
7:13 AM 30.2 °F - 28.4 °F 93% 30.12 in 0.2 mi Calm Calm - N/A Fog Light Freezing Fog
7:22 AM 30.2 °F - 30.2 °F 100% 30.12 in 1.0 mi Calm Calm - N/A   Clear
7:25 AM 30.2 °F - 30.2 °F 100% 30.12 in 2.5 mi Calm Calm - N/A   Partly Cloudy
7:32 AM 30.2 °F - 30.2 °F 100% 30.12 in 8.0 mi Calm Calm - N/A   Partly Cloudy
7:53 AM 32.0 °F - 32.0 °F 100% 30.13 in 10.0 mi Calm Calm - N/A   Partly Cloudy
8:53 AM 41.0 °F - 36.0 °F 82% 30.14 in 10.0 mi Calm Calm - N/A   Clear
9:53 AM 48.0 °F - 34.0 °F 58% 30.14 in 10.0 mi South 5.8 mph - N/A   Clear
10:53 AM 52.0 °F - 34.0 °F 50% 30.14 in 10.0 mi SSW 5.8 mph - N/A   Clear
11:53 AM 55.9 °F - 33.1 °F 42% 30.12 in 10.0 mi SW 3.5 mph - N/A   Clear
12:53 PM 59.0 °F - 32.0 °F 36% 30.08 in 10.0 mi Variable 3.5 mph - N/A   Clear
1:53 PM 62.1 °F - 30.9 °F 31% 30.04 in 10.0 mi SSW 10.4 mph - N/A   Clear
2:53 PM 63.0 °F - 26.1 °F 25% 29.99 in 10.0 mi SSW 12.7 mph - N/A   Clear
4:53 PM 64.0 °F - 27.0 °F 25% 29.95 in 10.0 mi South 11.5 mph - N/A   Clear
5:53 PM 61.0 °F - 28.9 °F 30% 29.94 in 10.0 mi SSE 3.5 mph - N/A   Clear
6:53 PM 50.0 °F - 39.0 °F 66% 29.93 in 10.0 mi ENE 3.5 mph - N/A   Clear
7:53 PM 45.0 °F - 39.0 °F 80% 29.94 in 10.0 mi Calm Calm - N/A   Clear
8:53 PM 42.1 °F - 37.9 °F 85% 29.94 in 10.0 mi Calm Calm - N/A   Clear
9:53 PM 41.0 °F 39.0 °F 37.9 °F 89% 29.92 in 10.0 mi NNE 3.5 mph - N/A   Clear
10:53 PM 42.1 °F - 37.0 °F 82% 29.90 in 10.0 mi Calm Calm - N/A   Clear
11:53 PM 42.1 °F - 37.9 °F 85% 29.88 in 10.0 mi Calm Calm - N/A   Scattered Clouds